Back to catalog

STARLINK-3730

AliveCommunicationsVLEO
NORAD 52139·PAYLOAD·🇺🇸 United States

Launched Mar 19, 2022 from Cape Canaveral Space Force Station

Loading…

Next Passes (next 24 hours)

TLE

FreshSource: CelesTrak SupGP

Epoch: Sep 14, 2026, 13:58 UTC

1 52139C 22029BD  26257.58243056  .00047392  00000+0  14007-2 0  2575
2 52139  53.1561 297.0397 0001287  93.6457 122.0311 15.34355011    11

Track STARLINK-3730 in real time with AllMySat

Download on the App Store